This is the latest recevied weather packets stored in our database for station/object KC7WRB. If no packets are shown the sender has not sent any weather packets the latest 10 day(s).
| Time | Temp. | Humidity | Pressure | Rain* | Wind** | Luminosity | Snow |
|---|---|---|---|---|---|---|---|
| 1778306878 | 12.78° C | 46% | 1019.7 hPa | 0 mm | - | 0 W/m² | - |
| 1778306575 | 15° C | 45% | 1019.5 hPa | 0 mm | - | 0 W/m² | - |
| 1778306271 | 13.89° C | 38% | 1019.7 hPa | 0 mm | - | 0 W/m² | - |
| 1778305967 | 13.33° C | 41% | 1019.5 hPa | 0 mm | - | 0 W/m² | - |
| 1778305664 | 14.44° C | 45% | 1019.5 hPa | 0 mm | - | 0 W/m² | - |
| 1778305360 | 14.44° C | 38% | 1019.5 hPa | 0 mm | - | 0 W/m² | - |
| 1778305059 | 14.44° C | 39% | 1019.5 hPa | 0 mm | - | 0 W/m² | - |
| 1778304755 | 14.44° C | 41% | 1019.5 hPa | 0 mm | - | 0 W/m² | - |
| 1778304454 | 13.89° C | 41% | 1019.7 hPa | 0 mm | - | 0 W/m² | - |
| 1778304151 | 13.89° C | 41% | 1019.4 hPa | 0 mm | - | 0 W/m² | - |
| 1778303848 | 15° C | 40% | 1019.3 hPa | 0 mm | - | 0 W/m² | - |
| 1778303546 | 15° C | 39% | 1019.3 hPa | 0 mm | - | 0 W/m² | - |
| 1778303243 | 15.56° C | 36% | 1019.2 hPa | 0 mm | - | 0 W/m² | - |
| 1778302939 | 16.11° C | 36% | 1019.2 hPa | 0 mm | - | 0 W/m² | - |
| 1778302637 | 15.56° C | 33% | 1019.1 hPa | 0 mm | - | 0 W/m² | - |
| 1778302334 | 15° C | 37% | 1019.3 hPa | 0 mm | - | 0 W/m² | - |
| 1778302031 | 15° C | 37% | 1018.9 hPa | 0 mm | - | 0 W/m² | - |
| 1778301729 | 15.56° C | 37% | 1019.2 hPa | 0 mm | - | 0 W/m² | - |
| 1778301424 | 16.11° C | 35% | 1019 hPa | 0 mm | - | 0 W/m² | - |
| 1778301121 | 16.67° C | 34% | 1018.7 hPa | 0 mm | - | 0 W/m² | - |
| 1778300817 | 16.67° C | 33% | 1019.1 hPa | 0 mm | - | 0 W/m² | - |
| 1778300513 | 17.22° C | 34% | 1018.9 hPa | 0 mm | - | 0 W/m² | - |
| 1778300209 | 18.33° C | 27% | 1018.9 hPa | 0 mm | - | 0 W/m² | - |
| 1778299907 | 18.33° C | 27% | 1018.6 hPa | 0 mm | - | 0 W/m² | - |
| 1778299606 | 18.33° C | 28% | 1018.6 hPa | 0 mm | - | 0 W/m² | - |
* Rain latest hour (hover to see other rain measurements)
** Current wind speed in m/s (hover to see current wind gust speed)